Gwinn, MI

12:15 PM EDT on September 29, 2016 (GMT -0400)
Sawyer International

Weather History for KSAW - July, 2013

Change the Weather History Date:

Monday, July 1, 2013

  Actual Average (KESC) Record (KESC)
Temperature  
Mean Temperature 54 °F -  
Max Temperature 64 °F 72 °F 90 °F (1970)
Min Temperature 43 °F 56 °F 39 °F (2007)
Degree Days  
Heating Degree Days 10    
Growing Degree Days 4 (Base 50)    
Moisture  
Dew Point 43 °F    
Average Humidity 66    
Maximum Humidity 85    
Minimum Humidity 39    
Precipitation  
Precipitation 0.00 in - - ()
Sea Level Pressure  
Sea Level Pressure 30.17 in    
Wind  
Wind Speed 3 mph (NNE)    
Max Wind Speed 16 mph    
Max Gust Speed 18 mph    
Visibility 10 miles    
Events      
Averages and records for this station are not official NWS values.
T = Trace of Precipitation, MM = Missing Value Source: NWS Daily Summary

Daily Weather History Graph

Daily Weather History Graph

Search for Another Location

Airport or City:

Trip Planner

Search our weather history database for the weather conditions in past years. The results will help you decide how hot, cold, wet, or windy it might be!

Date:

Astronomy

Jul. 01, 2013 Rise Set
Actual Time 6:01 AM EDT 9:45 PM EDT
Civil Twilight 5:22 AM EDT 10:23 PM EDT
Nautical Twilight 4:30 AM EDT 11:15 PM EDT
Astronomical Twilight 3:17 AM EDT 12:28 AM EDT
Moon 1:45 AM EDT (7/1) 3:48 PM EDT (7/1)
Length of Visible Light 17h 01m
Length of Day
15h 43m
Waning Crescent, 35% of the Moon is Illuminated
Jul 1
Waning Crescent
Jul 8
New
Jul 15
First Quarter
Jul 22
Full
Jul 29
Last Quarter

Hourly Weather History & Observations

Time (EDT) Temp. Dew Point Humidity Pressure Visibility Wind Dir Wind Speed Gust Speed Precip Events Conditions
12:16 AM 55.4 °F 42.6 °F 62% 30.11 in 10.0 mi Calm Calm - N/A   Clear
12:36 AM 54.7 °F 41.5 °F 61% 30.11 in 10.0 mi Calm Calm - N/A   Clear
12:56 AM 54.7 °F 42.6 °F 64% 30.12 in 10.0 mi Calm Calm - N/A   Clear
1:17 AM 53.4 °F 43.0 °F 68% 30.12 in 10.0 mi Calm Calm - N/A   Clear
1:36 AM 54.0 °F 43.0 °F 66% 30.12 in 10.0 mi Calm Calm - N/A   Clear
1:56 AM 54.0 °F 43.0 °F 66% 30.12 in 10.0 mi Calm Calm - N/A   Clear
2:17 AM 53.4 °F 45.5 °F 75% 30.12 in 10.0 mi Calm Calm - N/A   Clear
2:36 AM 54.7 °F 44.8 °F 69% 30.12 in 10.0 mi Calm Calm - N/A   Clear
2:57 AM 53.4 °F 44.8 °F 73% 30.13 in 10.0 mi Calm Calm - N/A   Clear
3:16 AM 53.2 °F 45.5 °F 75% 30.13 in 10.0 mi Calm Calm - N/A   Scattered Clouds
3:36 AM 52.3 °F 45.1 °F 76% 30.13 in 10.0 mi North 3.5 mph - N/A   Clear
3:57 AM 52.3 °F 45.1 °F 76% 30.12 in 10.0 mi Calm Calm - N/A   Clear
4:16 AM 51.6 °F 44.8 °F 77% 30.13 in 10.0 mi Calm Calm - N/A   Clear
4:37 AM 52.2 °F 45.0 °F 76% 30.13 in 10.0 mi North 3.5 mph - N/A   Clear
4:56 AM 52.2 °F 45.0 °F 76% 30.14 in 10.0 mi Calm Calm - N/A   Clear
5:16 AM 54.1 °F 46.9 °F 77% 30.14 in 10.0 mi NNE 5.8 mph - N/A   Clear
5:36 AM 53.6 °F 48.2 °F 82% 30.14 in 10.0 mi North 5.8 mph - N/A   Clear
5:56 AM 51.4 °F 46.9 °F 85% 30.14 in 10.0 mi NNW 3.5 mph - N/A   Clear
6:50 AM 51.8 °F 46.4 °F 82% 30.16 in 10.0 mi Calm Calm - N/A   Clear
7:55 AM 55.4 °F 48.2 °F 77% 30.18 in 10.0 mi NNE 8.1 mph - N/A   Scattered Clouds
8:55 AM 57.2 °F 48.2 °F 72% 30.18 in 10.0 mi NNE 11.5 mph - N/A   Mostly Cloudy
9:55 AM 57.2 °F 46.4 °F 67% 30.20 in 10.0 mi NNE 6.9 mph - N/A   Clear
10:55 AM 62.6 °F 48.2 °F 59% 30.21 in 10.0 mi NNE 10.4 mph - N/A   Clear
11:55 AM 62.6 °F 48.2 °F 59% 30.21 in 10.0 mi NNE 9.2 mph - N/A   Clear
12:55 PM 62.6 °F 48.2 °F 59% 30.22 in 10.0 mi NNE 12.7 mph - N/A   Clear
1:55 PM 62.6 °F 46.4 °F 55% 30.22 in 10.0 mi NNE 13.8 mph - N/A   Clear
2:50 PM 64.4 °F 44.6 °F 49% 30.23 in 10.0 mi NE 13.8 mph 18.4 mph N/A   Clear
3:50 PM 62.6 °F 44.6 °F 52% 30.23 in 10.0 mi NE 13.8 mph - N/A   Clear
4:50 PM 62.6 °F 42.8 °F 48% 30.22 in 10.0 mi NNE 16.1 mph - N/A   Clear
5:50 PM 60.8 °F 39.2 °F 45% 30.23 in 10.0 mi NNE 13.8 mph - N/A   Clear
6:50 PM 60.8 °F 35.6 °F 39% 30.23 in 10.0 mi NNE 11.5 mph - N/A   Clear
7:50 PM 59.0 °F 33.8 °F 39% 30.22 in 10.0 mi North 11.5 mph - N/A   Clear
8:50 PM 57.2 °F 37.4 °F 48% 30.21 in 10.0 mi NE 8.1 mph - N/A   Clear
9:50 PM 50.0 °F 39.2 °F 66% 30.22 in 10.0 mi NE 6.9 mph - N/A   Clear
10:16 PM 49.3 °F 38.1 °F 65% 30.22 in 10.0 mi NE 4.6 mph - N/A   Clear
10:36 PM 46.2 °F 38.3 °F 74% 30.22 in 10.0 mi Calm Calm - N/A   Clear
10:57 PM 46.8 °F 38.3 °F 72% 30.22 in 10.0 mi Calm Calm - N/A   Clear
11:16 PM 46.6 °F 38.7 °F 74% 30.22 in 10.0 mi Calm Calm - N/A   Clear
11:36 PM 45.0 °F 37.8 °F 76% 30.22 in 10.0 mi Calm Calm - N/A   Clear
11:56 PM 43.0 °F 36.9 °F 79% 30.22 in 10.0 mi Calm Calm - N/A   Clear